| time (UTC) | temp F | wind direction | speed MPH | gust MPH | rain 1hr in | rain 24hr in | rain mn in | humidity % | barometer mb |
| 20260903020104 | 71 | 129 | 0.0 | 2.0 | 0.00 | 0.67 | 0.34 | 97 | 1017.0 |
| 20260903014603 | 71 | 110 | 0.0 | 0.0 | 0.00 | 0.67 | 0.34 | 96 | 1017.3 |
| 20260903013057 | 72 | 110 | 0.0 | 0.0 | 0.00 | 0.67 | 0.34 | 95 | 1017.7 |
| 20260903011559 | 72 | 234 | 0.0 | 0.0 | 0.00 | 0.67 | 0.34 | 95 | 1017.5 |
| 20260903010056 | 72 | 111 | 0.0 | 1.0 | 0.00 | 0.67 | 0.34 | 95 | 1017.5 |
| 20260903004556 | 72 | 210 | 0.0 | 0.0 | 0.00 | 0.67 | 0.34 | 96 | 1017.4 |
| 20260903003055 | 72 | 210 | 0.0 | 0.0 | 0.00 | 0.67 | 0.34 | 95 | 1017.2 |
| 20260903001555 | 72 | 212 | 0.0 | 0.0 | 0.00 | 0.67 | 0.34 | 95 | 1017.0 |
| 20260903000057 | 73 | 200 | 0.0 | 0.0 | 0.00 | 0.67 | 0.34 | 95 | 1017.2 |
| 20260902234556 | 73 | 114 | 0.0 | 1.0 | 0.00 | 0.67 | 0.34 | 95 | 1017.3 |
| 20260902233054 | 74 | 138 | 0.0 | 0.0 | 0.00 | 0.67 | 0.34 | 94 | 1017.1 |
| 20260902231553 | 74 | 134 | 0.0 | 1.0 | 0.00 | 0.67 | 0.34 | 93 | 1017.2 |
| 20260902230055 | 75 | 147 | 0.0 | 1.0 | 0.00 | 0.67 | 0.34 | 92 | 1017.1 |
| 20260902224551 | 76 | 218 | 0.0 | 2.0 | 0.00 | 0.67 | 0.34 | 92 | 1017.0 |
| 20260902223050 | 77 | 127 | 0.0 | 2.0 | 0.00 | 0.67 | 0.34 | 91 | 1017.0 |
| 20260902221549 | 77 | 226 | 0.0 | 2.0 | 0.00 | 0.67 | 0.34 | 90 | 1016.9 |
| 20260902220049 | 77 | 214 | 0.0 | 0.0 | 0.00 | 0.67 | 0.34 | 91 | 1017.2 |
| 20260902214553 | 78 | 131 | 0.0 | 2.0 | 0.00 | 0.67 | 0.34 | 88 | 1017.3 |
| 20260902213047 | 78 | 219 | 0.0 | 1.0 | 0.00 | 0.67 | 0.34 | 89 | 1017.1 |
| 20260902211558 | 79 | 231 | 0.0 | 1.0 | 0.00 | 0.67 | 0.34 | 88 | 1017.1 |
| 20260902210109 | 77 | 247 | 0.0 | 0.0 | 0.00 | 0.67 | 0.34 | 91 | 1017.3 |
| 20260902204543 | 77 | 243 | 0.0 | 1.0 | 0.00 | 0.67 | 0.34 | 90 | 1017.4 |
| 20260902203040 | 77 | 221 | 0.0 | 0.0 | 0.00 | 0.67 | 0.34 | 94 | 1017.7 |
| 20260902201538 | 75 | 210 | 0.0 | 1.0 | 0.00 | 0.67 | 0.34 | 95 | 1017.6 |
| 20260902200037 | 74 | 186 | 0.0 | 0.0 | 0.00 | 0.67 | 0.34 | 97 | 1017.7 |
| 20260902194537 | 74 | 343 | 0.0 | 0.0 | 0.00 | 0.67 | 0.34 | 98 | 1017.7 |
| 20260902193036 | 73 | 343 | 0.0 | 1.0 | 0.00 | 0.67 | 0.34 | 98 | 1017.8 |
| 20260902191542 | 72 | 253 | 0.0 | 1.0 | 0.00 | 0.67 | 0.34 | 99 | 1017.5 |
| 20260902190040 | 71 | 239 | 0.0 | 1.0 | 0.00 | 0.67 | 0.34 | 99 | 1017.2 |
| 20260902184534 | 70 | 135 | 0.0 | 3.0 | 0.01 | 0.67 | 0.34 | 99 | 1017.1 |
| 20260902183035 | 70 | 137 | 0.0 | 3.0 | 0.04 | 0.67 | 0.34 | 99 | 1017.6 |
| 20260902181534 | 69 | 131 | 0.0 | 3.0 | 0.07 | 0.67 | 0.34 | 99 | 1017.4 |
| 20260902180036 | 68 | 116 | 0.0 | 3.0 | 0.12 | 0.67 | 0.34 | 98 | 1017.3 |
| 20260902174532 | 69 | 126 | 0.0 | 1.0 | 0.14 | 0.66 | 0.33 | 98 | 1018.3 |
| 20260902173033 | 69 | 120 | 0.0 | 1.0 | 0.12 | 0.63 | 0.30 | 98 | 1019.2 |
| 20260902171531 | 69 | 203 | 0.0 | 1.0 | 0.10 | 0.59 | 0.26 | 97 | 1019.6 |
| 20260902170130 | 70 | 222 | 0.0 | 3.0 | 0.19 | 0.55 | 0.22 | 96 | 1020.3 |
| 20260902164530 | 73 | 233 | 0.0 | 1.0 | 0.16 | 0.52 | 0.19 | 97 | 1020.5 |
| 20260902163028 | 73 | 208 | 0.0 | 0.0 | 0.15 | 0.51 | 0.18 | 97 | 1020.6 |
| 20260902161528 | 74 | 208 | 0.0 | 1.0 | 0.13 | 0.49 | 0.16 | 94 | 1020.4 |
| 20260902160024 | 75 | 226 | 0.0 | 1.0 | 0.00 | 0.36 | 0.03 | 91 | 1019.1 |
| 20260902154524 | 75 | 122 | 1.0 | 5.0 | 0.00 | 0.36 | 0.03 | 90 | 1018.7 |
| 20260902153032 | 75 | 127 | 0.0 | 5.0 | 0.00 | 0.36 | 0.03 | 92 | 1018.7 |
| 20260902151520 | 75 | 131 | 0.0 | 4.0 | 0.00 | 0.36 | 0.03 | 92 | 1018.3 |
| 20260902150017 | 75 | 99 | 0.0 | 3.0 | 0.00 | 0.36 | 0.03 | 93 | 1018.5 |
| 20260902144527 | 74 | 139 | 0.0 | 4.0 | 0.00 | 0.36 | 0.03 | 93 | 1018.6 |
| 20260902143014 | 74 | 131 | 0.0 | 4.0 | 0.00 | 0.36 | 0.03 | 94 | 1018.8 |
| 20260902141511 | 73 | 146 | 1.0 | 3.0 | 0.00 | 0.36 | 0.03 | 95 | 1018.7 |
| 20260902140008 | 73 | 135 | 0.0 | 3.0 | 0.00 | 0.36 | 0.03 | 96 | 1018.7 |
| 20260902134509 | 73 | 128 | 0.0 | 3.0 | 0.00 | 0.36 | 0.03 | 97 | 1018.9 |
| 20260902133005 | 72 | 124 | 0.0 | 2.0 | 0.00 | 0.36 | 0.03 | 99 | 1018.6 |
| 20260902131505 | 72 | 124 | 0.0 | 3.0 | 0.00 | 0.36 | 0.03 | 100 | 1018.3 |
| 20260902130105 | 71 | 128 | 0.0 | 0.0 | 0.00 | 0.36 | 0.03 | 100 | 1018.1 |
| 20260902124557 | 71 | 129 | 0.0 | 0.0 | 0.00 | 0.36 | 0.03 | 100 | 1018.1 |
| 20260902123056 | 70 | 129 | 0.0 | 0.0 | 0.00 | 0.36 | 0.03 | 100 | 1017.9 |
| 20260902121556 | 70 | 129 | 0.0 | 0.0 | 0.00 | 0.36 | 0.03 | 100 | 1018.1 |
| 20260902120054 | 70 | 129 | 0.0 | 1.0 | 0.00 | 0.36 | 0.03 | 100 | 1017.8 |
| 20260902114553 | 70 | 129 | 0.0 | 0.0 | 0.00 | 0.36 | 0.03 | 100 | 1017.7 |
| 20260902113055 | 69 | 129 | 0.0 | 0.0 | 0.00 | 0.36 | 0.03 | 100 | 1017.8 |
| 20260902111551 | 69 | 129 | 0.0 | 1.0 | 0.00 | 0.36 | 0.03 | 100 | 1017.5 |
| 20260902110054 | 69 | 124 | 0.0 | 1.0 | 0.00 | 0.36 | 0.03 | 100 | 1017.6 |
| 20260902104551 | 69 | 124 | 0.0 | 0.0 | 0.00 | 0.36 | 0.03 | 100 | 1017.5 |
| 20260902103049 | 69 | 124 | 0.0 | 0.0 | 0.00 | 0.36 | 0.03 | 100 | 1017.8 |
| 20260902101549 | 69 | 124 | 0.0 | 0.0 | 0.00 | 0.36 | 0.03 | 100 | 1017.8 |
| 20260902100047 | 69 | 124 | 0.0 | 0.0 | 0.00 | 0.36 | 0.03 | 100 | 1017.7 |
| 20260902094550 | 69 | 122 | 0.0 | 0.0 | 0.00 | 0.36 | 0.03 | 100 | 1017.6 |
| 20260902093046 | 69 | 122 | 0.0 | 0.0 | 0.01 | 0.36 | 0.03 | 100 | 1017.6 |
| 20260902091552 | 69 | 122 | 0.0 | 1.0 | 0.01 | 0.36 | 0.03 | 100 | 1017.6 |
| 20260902090042 | 69 | 122 | 0.0 | 1.0 | 0.01 | 0.36 | 0.03 | 99 | 1017.3 |
| 20260902084542 | 69 | 135 | 0.0 | 1.0 | 0.01 | 0.36 | 0.03 | 99 | 1017.3 |
| 20260902083042 | 69 | 134 | 0.0 | 1.0 | 0.00 | 0.35 | 0.02 | 99 | 1017.2 |
| 20260902081540 | 69 | 113 | 0.0 | 0.0 | 0.00 | 0.35 | 0.02 | 99 | 1017.2 |
| 20260902080045 | 69 | 113 | 0.0 | 0.0 | 0.00 | 0.35 | 0.02 | 99 | 1017.1 |
| 20260902074539 | 69 | 113 | 0.0 | 1.0 | 0.00 | 0.35 | 0.02 | 99 | 1017.0 |
| 20260902073038 | 69 | 92 | 0.0 | 0.0 | 0.00 | 0.35 | 0.02 | 99 | 1017.2 |
| 20260902071536 | 69 | 92 | 0.0 | 0.0 | 0.00 | 0.35 | 0.02 | 99 | 1017.1 |
| 20260902070035 | 69 | 92 | 0.0 | 0.0 | 0.00 | 0.35 | 0.02 | 99 | 1016.9 |
| 20260902064534 | 69 | 92 | 0.0 | 0.0 | 0.00 | 0.35 | 0.02 | 99 | 1016.8 |
| 20260902063041 | 69 | 92 | 0.0 | 0.0 | 0.00 | 0.35 | 0.02 | 99 | 1016.7 |
| 20260902061547 | 70 | 92 | 0.0 | 0.0 | 0.00 | 0.35 | 0.02 | 99 | 1016.5 |
| 20260902060031 | 70 | 92 | 0.0 | 0.0 | 0.00 | 0.35 | 0.02 | 99 | 1016.8 |
| 20260902054534 | 70 | 92 | 0.0 | 0.0 | 0.00 | 0.35 | 0.02 | 99 | 1016.7 |
| 20260902053030 | 70 | 112 | 0.0 | 1.0 | 0.00 | 0.35 | 0.02 | 99 | 1016.6 |
| 20260902051528 | 70 | 136 | 0.0 | 1.0 | 0.01 | 0.35 | 0.02 | 99 | 1016.5 |
| 20260902050027 | 70 | 136 | 0.0 | 1.0 | 0.02 | 0.35 | 0.02 | 98 | 1015.7 |
| 20260902044524 | 70 | 127 | 0.0 | 2.0 | 0.05 | 0.35 | 0.02 | 98 | 1015.9 |
| 20260902043031 | 70 | 148 | 0.0 | 0.0 | 0.07 | 0.35 | 0.02 | 98 | 1016.4 |
| 20260902041519 | 70 | 215 | 0.0 | 2.0 | 0.13 | 0.34 | 0.01 | 98 | 1016.8 |
| 20260902040016 | 71 | 218 | 0.0 | 2.0 | 0.27 | 0.33 | 0.33 | 97 | 1017.0 |
| 20260902034517 | 71 | 113 | 0.0 | 4.0 | 0.28 | 0.28 | 0.28 | 97 | 1017.3 |
| 20260902033035 | 72 | 243 | 0.0 | 1.0 | 0.28 | 0.28 | 0.28 | 97 | 1017.4 |
| 20260902031516 | 72 | 243 | 0.0 | 2.0 | 0.21 | 0.21 | 0.21 | 96 | 1016.5 |
| 20260902030020 | 74 | 250 | 0.0 | 3.0 | 0.06 | 0.09 | 0.06 | 92 | 1016.7 |
| 20260902024515 | 74 | 72 | 0.0 | 0.0 | 0.00 | 0.03 | 0.00 | 89 | 1015.9 |
| 20260902023013 | 75 | 72 | 0.0 | 0.0 | 0.00 | 0.00 | 0.00 | 87 | 1015.4 |
| 20260902021522 | 76 | 96 | 0.0 | 5.0 | 0.00 | 0.03 | 0.00 | 85 | 1015.8 |